Regional Weather Roundup
Issued by NWS

Home | Current Version | Previous Version | Text Only | Print | Product List | Glossary On
Versions: 1 2 3 4 5 6 7 8 9 10 11 12 13 14 15 16 17 18 19 20 21 22 23 24 25 26 27
000
ASUS46 KSEW 261310
RWRWA

WASHINGTON REGIONAL WEATHER ROUNDUP
NATIONAL WEATHER SERVICE SEATTLE WA
600 AM PDT WED JUL 26 2017

NOTE:"FAIR" INDICATES FEW OR NO CLOUDS BELOW 12,000 FEET WITH NO
SIGNIFICANT WEATHER AND/OR OBSTRUCTIONS TO VISIBILITY.

WAZ507-509-555>559-261400-
SEATTLE, TACOMA, EVERETT, AND VICINITY

CITY           SKY/WX    TMP DP  RH WIND       PRES   REMARKS
EVERETT        FOG       54  54 100 N7        30.08R VSB 1/4
BOEING FIELD   PTCLDY    58  55  90 W3        30.07R
RENTON         CLEAR     61  55  81 S6        30.07R
SEATAC AIRPORT PTCLDY    56  53  90 W5        30.08R
JBLM-MCCHORD   PTCLDY    57  55  94 SW3       30.09R
PUYALLUP       FAIR      54  54 100 CALM      30.08R
BREMERTON      CLEAR     51  50  96 CALM      30.08R FOG
JBLM-FT LEWIS  CLEAR     56  55  99 SW3       30.07R
TACOMA NARROWS CLOUDY    55  54  96 SW3       30.09R
$$

WAZ001-503-506-510-514-515-261400-
NORTH INTERIOR

CITY           SKY/WX    TMP DP  RH WIND       PRES   REMARKS
BELLINGHAM     CLEAR     56  55  97 S10       30.04R
FRIDAY HARBOR  PTCLDY    52  52 100 NE3       30.05R
EASTSOUND      CLEAR     55  54  94 S9        30.04R
PORT ANGELES   CLOUDY    54  54 100 W10       30.07S
EDIZ HOOK      CLOUDY    53  52  95 W15       30.07R
PORT TOWNSEND  FOG       54  54 100 SE5       30.08R VSB<1/4
NAS WHIDBEY    CLOUDY    55  51  86 SW13      30.10R FOG
ARLINGTON      MOCLDY    54  53  97 NW7       30.08R
BURLINGTON     CLOUDY    55  54  94 S6        30.07R
$$

WAZ020-022-039-040-504-511-512-261400-
SOUTHWEST INTERIOR

CITY           SKY/WX    TMP DP  RH WIND       PRES   REMARKS
SHELTON        CLOUDY    56  54  93 W12       30.06R
OLYMPIA        CLEAR     52  52 100 CALM      30.08R
CHEHALIS       CLOUDY    57  55  94 CALM      30.09R
KELSO          CLOUDY    58  54  86 N7        30.09R
VANCOUVER      PTCLDY    59  55  87 VRB5      30.06R
SCAPPOOSE, OR  MOCLDY    58  52  80 N9        30.05R
PORTLAND, OR   MOCLDY    59  54  83 NW7       30.06R
$$

WAZ021-516-517-261400-
WASHINGTON COAST

CITY           SKY/WX    TMP DP  RH WIND       PRES   REMARKS
FORKS          FOG       56  55  97 CALM      30.10R VSB 1
HOQUIAM        CLOUDY    56  55  97 VRB5      30.10R
ASTORIA, OR    CLOUDY    57  53  86 N7        30.11S
$$

WAZ019-023-024-040-567>569-261400-
CASCADE MOUNTAINS AND COLUMBIA GORGE

CITY           SKY/WX    TMP DP  RH WIND       PRES   REMARKS
STAMPEDE PASS  PTCLDY    55  47  74 SW5       30.15R
TROUTDALE, OR  PTCLDY    58  54  86 W5        30.06R
HOOD RIVER, OR MOSUNNY   59  52  77 S5        30.00R
THE DALLES, OR PTCLDY    69  56  62 CALM      29.96R
$$

WAZ026-027-041>044-520-521-261400-
EAST SLOPES

CITY           SKY/WX    TMP DP  RH WIND       PRES   REMARKS
OMAK           CLEAR     62  39  42 N5        29.99R
WENATCHEE      PTCLDY    67  49  52 W6        29.98R
ELLENSBURG     PTCLDY    59  48  67 NE5       30.01S
YAKIMA         CLEAR     65  52  62 W9        29.98R
SUNNYSIDE ARPT   N/A     55  51  86 CALM      29.95S
YAKIMA TC      FAIR      68  43  40 E10       29.97R
$$

WAZ028-034-035-261400-
COLUMBIA BASIN

CITY           SKY/WX    TMP DP  RH WIND       PRES   REMARKS
EPHRATA        CLEAR     62  38  40 N6        29.97R
MOSES LAKE     CLEAR     57  42  57 N5        29.97R
PASCO          PTCLDY    57  53  86 N7        29.94S
RICHLAND ARPT  MOSUNNY   64  52  65 CALM      29.94S
HERMISTON, OR  PTCLDY    61  45  55 SE3       29.95R
$$

WAZ036>038-261400-
NORTHEAST WASHINGTON

CITY           SKY/WX    TMP DP  RH WIND       PRES   REMARKS
SPOKANE GEIGER PTCLDY    63  46  54 NE6       30.03S
SPOKANE FELTS  CLEAR     57  46  66 CALM      30.03S
FAIRCHILD AFB  CLEAR     60  42  50 E5        30.03R
COEURDALENE,ID CLEAR     60  43  53 E7        30.06R
DEER PARK      CLEAR     48  37  65 S3        30.04R
$$

WAZ029>033-261400-
SOUTHEAST WASHINGTON

CITY           SKY/WX    TMP DP  RH WIND       PRES   REMARKS
PULLMAN        CLEAR     54  42  64 CALM      30.06R
LEWISTON, ID   CLEAR     63  39  41 S3        30.00R
WALLA WALLA    PTCLDY    68  44  42 E7        29.97S
PENDLETON, OR  PTCLDY    62  42  47 SE5       29.99S
$$




USA.gov is the U.S. government's official web portal to all federal, state and local government web resources and services.